| time (UTC) | temp F | wind direction | speed MPH | gust MPH | rain 1hr in | rain 24hr in | rain mn in | humidity % | barometer mb |
| 20260507155557 | 62 | 297 | 3.0 | 9.0 | 0.00 | 0.00 | 0.00 | 56 | 1015.5 |
| 20260507155058 | 62 | 218 | 3.0 | 11.0 | 0.00 | 0.00 | 0.00 | 55 | 1015.5 |
| 20260507154556 | 62 | 290 | 2.0 | 13.0 | 0.00 | 0.00 | 0.00 | 58 | 1015.5 |
| 20260507154059 | 61 | 257 | 4.0 | 13.0 | 0.00 | 0.00 | 0.00 | 56 | 1015.6 |
| 20260507153601 | 61 | 86 | 3.0 | 11.0 | 0.00 | 0.00 | 0.00 | 57 | 1015.7 |
| 20260507153102 | 61 | 248 | 4.0 | 15.0 | 0.00 | 0.00 | 0.00 | 57 | 1015.6 |
| 20260507152558 | 61 | 228 | 2.0 | 15.0 | 0.00 | 0.00 | 0.00 | 59 | 1015.5 |
| 20260507152057 | 61 | 267 | 2.0 | 8.0 | 0.00 | 0.00 | 0.00 | 58 | 1015.6 |
| 20260507151556 | 60 | 259 | 2.0 | 9.0 | 0.00 | 0.00 | 0.00 | 59 | 1015.8 |
| 20260507151057 | 60 | 277 | 2.0 | 9.0 | 0.00 | 0.00 | 0.00 | 60 | 1015.9 |
| 20260507150558 | 59 | 290 | 2.0 | 11.0 | 0.00 | 0.00 | 0.00 | 60 | 1016.0 |
| 20260507150109 | 59 | 311 | 3.0 | 12.0 | 0.00 | 0.00 | 0.00 | 61 | 1016.1 |
| 20260507145559 | 59 | 266 | 3.0 | 12.0 | 0.00 | 0.00 | 0.00 | 60 | 1016.1 |
| 20260507145057 | 59 | 263 | 2.0 | 8.0 | 0.00 | 0.00 | 0.00 | 63 | 1016.1 |
| 20260507144600 | 58 | 246 | 2.0 | 6.0 | 0.00 | 0.00 | 0.00 | 63 | 1016.3 |
| 20260507144055 | 58 | 256 | 1.0 | 4.0 | 0.00 | 0.00 | 0.00 | 64 | 1016.4 |
| 20260507143557 | 57 | 266 | 1.0 | 6.0 | 0.00 | 0.00 | 0.00 | 66 | 1016.5 |
| 20260507143106 | 57 | 283 | 1.0 | 6.0 | 0.00 | 0.00 | 0.00 | 68 | 1016.3 |
| 20260507142558 | 56 | 283 | 2.0 | 6.0 | 0.00 | 0.00 | 0.00 | 68 | 1016.4 |
| 20260507142058 | 56 | 155 | 2.0 | 6.0 | 0.00 | 0.00 | 0.00 | 70 | 1016.5 |
| 20260507141601 | 55 | 221 | 2.0 | 5.0 | 0.00 | 0.00 | 0.00 | 70 | 1016.4 |
| 20260507141057 | 55 | 280 | 0.0 | 5.0 | 0.00 | 0.00 | 0.00 | 72 | 1016.5 |
| 20260507140558 | 54 | 250 | 1.0 | 6.0 | 0.00 | 0.00 | 0.00 | 73 | 1016.5 |
| 20260507140057 | 53 | 0 | 1.0 | 7.0 | 0.00 | 0.00 | 0.00 | 74 | 1016.6 |
| 20260507135558 | 53 | 229 | 1.0 | 7.0 | 0.00 | 0.00 | 0.00 | 74 | 1016.5 |
| 20260507135057 | 53 | 290 | 2.0 | 8.0 | 0.00 | 0.00 | 0.00 | 76 | 1016.5 |
| 20260507134606 | 52 | 274 | 2.0 | 8.0 | 0.00 | 0.00 | 0.00 | 76 | 1016.5 |
| 20260507134122 | 51 | 274 | 2.0 | 6.0 | 0.00 | 0.00 | 0.00 | 78 | 1016.6 |
| 20260507133557 | 51 | 0 | 2.0 | 6.0 | 0.00 | 0.00 | 0.00 | 80 | 1016.7 |
| 20260507133059 | 50 | 254 | 1.0 | 6.0 | 0.00 | 0.00 | 0.00 | 80 | 1016.7 |
| 20260507132554 | 50 | 311 | 2.0 | 5.0 | 0.00 | 0.00 | 0.00 | 81 | 1016.7 |
| 20260507132054 | 49 | 252 | 1.0 | 5.0 | 0.00 | 0.00 | 0.00 | 83 | 1016.7 |
| 20260507131612 | 49 | 290 | 1.0 | 5.0 | 0.00 | 0.00 | 0.00 | 84 | 1016.7 |
| 20260507131057 | 48 | 277 | 0.0 | 4.0 | 0.00 | 0.00 | 0.00 | 86 | 1016.7 |
| 20260507130557 | 48 | 299 | 0.0 | 4.0 | 0.00 | 0.00 | 0.00 | 87 | 1016.7 |
| 20260507130104 | 47 | 0 | 0.0 | 2.0 | 0.00 | 0.00 | 0.00 | 89 | 1016.7 |
| 20260507125558 | 46 | 279 | 0.0 | 3.0 | 0.00 | 0.00 | 0.00 | 91 | 1016.8 |
| 20260507125058 | 46 | 277 | 0.0 | 3.0 | 0.00 | 0.00 | 0.00 | 93 | 1016.8 |
| 20260507124600 | 45 | 0 | 0.0 | 1.0 | 0.00 | 0.00 | 0.00 | 95 | 1016.7 |
| 20260507124100 | 44 | 0 | 0.0 | 0.0 | 0.00 | 0.00 | 0.00 | 95 | 1016.7 |
| 20260507123600 | 44 | 0 | 0.0 | 0.0 | 0.00 | 0.00 | 0.00 | 96 | 1016.6 |
| 20260507123108 | 44 | 0 | 0.0 | 0.0 | 0.00 | 0.00 | 0.00 | 96 | 1016.5 |
| 20260507122559 | 43 | 0 | 0.0 | 0.0 | 0.00 | 0.00 | 0.00 | 96 | 1016.6 |
| 20260507122058 | 43 | 0 | 0.0 | 1.0 | 0.00 | 0.00 | 0.00 | 96 | 1016.7 |
| 20260507121608 | 42 | 0 | 0.0 | 1.0 | 0.00 | 0.00 | 0.00 | 96 | 1016.8 |
| 20260507121059 | 42 | 56 | 0.0 | 0.0 | 0.00 | 0.00 | 0.00 | 95 | 1016.8 |
| 20260507120558 | 42 | 0 | 0.0 | 0.0 | 0.00 | 0.00 | 0.00 | 95 | 1016.9 |
| 20260507120059 | 42 | 0 | 0.0 | 0.0 | 0.00 | 0.00 | 0.00 | 94 | 1016.6 |
| 20260507115557 | 42 | 0 | 0.0 | 0.0 | 0.00 | 0.00 | 0.00 | 94 | 1016.7 |
| 20260507115057 | 41 | 0 | 0.0 | 0.0 | 0.00 | 0.00 | 0.00 | 93 | 1016.6 |
| 20260507114602 | 41 | 0 | 0.0 | 0.0 | 0.00 | 0.00 | 0.00 | 93 | 1016.6 |
| 20260507114058 | 42 | 0 | 0.0 | 0.0 | 0.00 | 0.00 | 0.00 | 92 | 1016.7 |
| 20260507113557 | 42 | 0 | 0.0 | 0.0 | 0.00 | 0.00 | 0.00 | 92 | 1016.5 |
| 20260507113100 | 42 | 0 | 0.0 | 0.0 | 0.00 | 0.00 | 0.00 | 92 | 1016.5 |
| 20260507112558 | 42 | 0 | 0.0 | 0.0 | 0.00 | 0.00 | 0.00 | 92 | 1016.5 |
| 20260507112058 | 42 | 0 | 0.0 | 0.0 | 0.00 | 0.00 | 0.00 | 92 | 1016.5 |
| 20260507111600 | 42 | 0 | 0.0 | 0.0 | 0.00 | 0.00 | 0.00 | 92 | 1016.5 |
| 20260507111059 | 42 | 0 | 0.0 | 0.0 | 0.00 | 0.00 | 0.00 | 91 | 1016.5 |
| 20260507110559 | 42 | 0 | 0.0 | 0.0 | 0.00 | 0.00 | 0.00 | 91 | 1016.5 |
| 20260507110114 | 42 | 0 | 0.0 | 0.0 | 0.00 | 0.00 | 0.00 | 91 | 1016.7 |
| 20260507105558 | 43 | 0 | 0.0 | 0.0 | 0.00 | 0.00 | 0.00 | 91 | 1016.6 |
| 20260507105100 | 43 | 0 | 0.0 | 0.0 | 0.00 | 0.00 | 0.00 | 91 | 1016.6 |
| 20260507104557 | 43 | 0 | 0.0 | 0.0 | 0.00 | 0.00 | 0.00 | 91 | 1016.5 |
| 20260507104056 | 43 | 0 | 0.0 | 0.0 | 0.00 | 0.00 | 0.00 | 91 | 1016.7 |
| 20260507103559 | 43 | 0 | 0.0 | 0.0 | 0.00 | 0.00 | 0.00 | 91 | 1016.7 |
| 20260507103059 | 43 | 0 | 0.0 | 0.0 | 0.00 | 0.00 | 0.00 | 90 | 1016.7 |
| 20260507102558 | 43 | 0 | 0.0 | 0.0 | 0.00 | 0.00 | 0.00 | 90 | 1016.6 |
| 20260507102057 | 44 | 0 | 0.0 | 0.0 | 0.00 | 0.00 | 0.00 | 89 | 1016.5 |
| 20260507101601 | 44 | 0 | 0.0 | 0.0 | 0.00 | 0.00 | 0.00 | 89 | 1016.6 |
| 20260507101058 | 44 | 0 | 0.0 | 1.0 | 0.00 | 0.00 | 0.00 | 89 | 1016.6 |
| 20260507100556 | 44 | 0 | 0.0 | 1.0 | 0.00 | 0.00 | 0.00 | 89 | 1016.6 |
| 20260507100106 | 44 | 56 | 0.0 | 0.0 | 0.00 | 0.00 | 0.00 | 88 | 1016.7 |
| 20260507095558 | 44 | 0 | 0.0 | 0.0 | 0.00 | 0.00 | 0.00 | 87 | 1016.7 |
| 20260507095059 | 45 | 0 | 0.0 | 0.0 | 0.00 | 0.00 | 0.00 | 87 | 1016.8 |
| 20260507094613 | 45 | 0 | 0.0 | 0.0 | 0.00 | 0.00 | 0.00 | 86 | 1016.6 |
| 20260507094058 | 45 | 0 | 0.0 | 0.0 | 0.00 | 0.00 | 0.00 | 86 | 1016.6 |
| 20260507093557 | 45 | 0 | 0.0 | 0.0 | 0.00 | 0.00 | 0.00 | 86 | 1016.7 |
| 20260507093101 | 45 | 0 | 0.0 | 0.0 | 0.00 | 0.00 | 0.00 | 85 | 1016.7 |
| 20260507092558 | 45 | 0 | 0.0 | 2.0 | 0.00 | 0.00 | 0.00 | 85 | 1016.7 |
| 20260507092057 | 46 | 0 | 0.0 | 2.0 | 0.00 | 0.00 | 0.00 | 85 | 1016.6 |
| 20260507091640 | 46 | 295 | 0.0 | 2.0 | 0.00 | 0.00 | 0.00 | 84 | 1016.8 |
| 20260507091057 | 46 | 308 | 0.0 | 2.0 | 0.00 | 0.00 | 0.00 | 84 | 1016.8 |
| 20260507090556 | 46 | 307 | 0.0 | 2.0 | 0.00 | 0.00 | 0.00 | 84 | 1016.9 |
| 20260507090106 | 46 | 316 | 0.0 | 2.0 | 0.00 | 0.00 | 0.00 | 84 | 1017.0 |
| 20260507085557 | 46 | 290 | 0.0 | 2.0 | 0.00 | 0.00 | 0.00 | 84 | 1017.0 |
| 20260507085100 | 46 | 287 | 0.0 | 2.0 | 0.00 | 0.00 | 0.00 | 84 | 1017.0 |
| 20260507084559 | 46 | 302 | 0.0 | 1.0 | 0.00 | 0.00 | 0.00 | 84 | 1017.0 |
| 20260507084101 | 46 | 0 | 0.0 | 1.0 | 0.00 | 0.00 | 0.00 | 83 | 1017.1 |
| 20260507083558 | 46 | 0 | 0.0 | 2.0 | 0.00 | 0.00 | 0.00 | 83 | 1017.2 |
| 20260507083100 | 46 | 0 | 0.0 | 2.0 | 0.00 | 0.00 | 0.00 | 83 | 1017.0 |
| 20260507082559 | 46 | 277 | 0.0 | 2.0 | 0.00 | 0.00 | 0.00 | 84 | 1017.2 |
| 20260507082058 | 46 | 277 | 0.0 | 2.0 | 0.00 | 0.00 | 0.00 | 85 | 1017.2 |
| 20260507081601 | 45 | 0 | 0.0 | 0.0 | 0.00 | 0.00 | 0.00 | 86 | 1017.2 |
| 20260507081059 | 45 | 0 | 0.0 | 0.0 | 0.00 | 0.00 | 0.00 | 87 | 1017.2 |
| 20260507080559 | 45 | 0 | 0.0 | 0.0 | 0.00 | 0.00 | 0.00 | 86 | 1017.2 |
| 20260507080059 | 45 | 0 | 0.0 | 0.0 | 0.00 | 0.00 | 0.00 | 86 | 1017.2 |
| 20260507075557 | 45 | 0 | 0.0 | 1.0 | 0.00 | 0.00 | 0.00 | 87 | 1017.2 |
| 20260507075059 | 45 | 0 | 0.0 | 1.0 | 0.00 | 0.00 | 0.00 | 87 | 1017.2 |
| 20260507074600 | 45 | 0 | 0.0 | 0.0 | 0.00 | 0.00 | 0.00 | 86 | 1017.2 |
| 20260507074058 | 45 | 0 | 0.0 | 0.0 | 0.00 | 0.00 | 0.00 | 86 | 1017.3 |
| 20260507073559 | 45 | 0 | 0.0 | 0.0 | 0.00 | 0.00 | 0.00 | 86 | 1017.3 |
| 20260507073101 | 45 | 0 | 0.0 | 0.0 | 0.00 | 0.00 | 0.00 | 86 | 1017.3 |
| 20260507072559 | 45 | 0 | 0.0 | 0.0 | 0.00 | 0.00 | 0.00 | 84 | 1017.2 |
| 20260507072103 | 45 | 0 | 0.0 | 0.0 | 0.00 | 0.00 | 0.00 | 83 | 1017.3 |
| 20260507071559 | 46 | 0 | 0.0 | 0.0 | 0.00 | 0.00 | 0.00 | 82 | 1017.4 |
| 20260507071101 | 46 | 0 | 0.0 | 0.0 | 0.00 | 0.00 | 0.00 | 83 | 1017.4 |
| 20260507070602 | 46 | 0 | 0.0 | 0.0 | 0.00 | 0.00 | 0.00 | 82 | 1017.5 |
| 20260507070108 | 47 | 0 | 0.0 | 0.0 | 0.00 | 0.00 | 0.00 | 83 | 1017.4 |
| 20260507065558 | 47 | 0 | 0.0 | 1.0 | 0.00 | 0.00 | 0.00 | 83 | 1017.6 |
| 20260507065059 | 46 | 0 | 0.0 | 1.0 | 0.00 | 0.00 | 0.00 | 83 | 1017.6 |
| 20260507064600 | 46 | 0 | 0.0 | 0.0 | 0.00 | 0.00 | 0.00 | 80 | 1017.7 |
| 20260507064059 | 47 | 0 | 0.0 | 0.0 | 0.00 | 0.00 | 0.00 | 80 | 1017.7 |
| 20260507063559 | 47 | 0 | 0.0 | 0.0 | 0.00 | 0.00 | 0.00 | 80 | 1017.7 |
| 20260507063100 | 48 | 0 | 0.0 | 0.0 | 0.00 | 0.00 | 0.00 | 79 | 1017.9 |
| 20260507062557 | 48 | 0 | 0.0 | 0.0 | 0.00 | 0.00 | 0.00 | 78 | 1017.8 |
| 20260507062059 | 48 | 0 | 0.0 | 0.0 | 0.00 | 0.00 | 0.00 | 78 | 1017.8 |
| 20260507061559 | 49 | 0 | 0.0 | 0.0 | 0.00 | 0.00 | 0.00 | 77 | 1017.8 |
| 20260507061100 | 49 | 0 | 0.0 | 0.0 | 0.00 | 0.00 | 0.00 | 77 | 1017.9 |
| 20260507060558 | 50 | 0 | 0.0 | 0.0 | 0.00 | 0.00 | 0.00 | 77 | 1017.9 |
| 20260507060110 | 50 | 0 | 0.0 | 0.0 | 0.00 | 0.00 | 0.00 | 76 | 1017.9 |
| 20260507055600 | 50 | 0 | 0.0 | 0.0 | 0.00 | 0.00 | 0.00 | 76 | 1018.0 |
| 20260507055057 | 50 | 0 | 0.0 | 1.0 | 0.00 | 0.00 | 0.00 | 75 | 1018.0 |
| 20260507054600 | 50 | 0 | 0.0 | 2.0 | 0.00 | 0.00 | 0.00 | 74 | 1018.1 |
| 20260507054059 | 50 | 274 | 0.0 | 2.0 | 0.00 | 0.00 | 0.00 | 73 | 1018.2 |
| 20260507053600 | 50 | 0 | 0.0 | 0.0 | 0.00 | 0.00 | 0.00 | 73 | 1018.0 |
| 20260507053100 | 50 | 0 | 0.0 | 0.0 | 0.00 | 0.00 | 0.00 | 72 | 1018.0 |
| 20260507052559 | 50 | 0 | 0.0 | 1.0 | 0.00 | 0.00 | 0.00 | 72 | 1018.0 |
| 20260507052059 | 50 | 0 | 0.0 | 1.0 | 0.00 | 0.00 | 0.00 | 72 | 1018.0 |
| 20260507051559 | 50 | 280 | 0.0 | 1.0 | 0.00 | 0.00 | 0.00 | 72 | 1018.1 |
| 20260507051057 | 50 | 0 | 0.0 | 2.0 | 0.00 | 0.00 | 0.00 | 71 | 1018.0 |
| 20260507050558 | 50 | 280 | 1.0 | 2.0 | 0.00 | 0.00 | 0.00 | 71 | 1017.9 |
| 20260507050103 | 50 | 283 | 0.0 | 1.0 | 0.00 | 0.00 | 0.00 | 72 | 1017.9 |
| 20260507045558 | 50 | 0 | 0.0 | 1.0 | 0.00 | 0.04 | 0.00 | 72 | 1018.1 |
| 20260507045058 | 50 | 295 | 0.0 | 1.0 | 0.00 | 0.04 | 0.00 | 72 | 1018.0 |
| 20260507044602 | 50 | 285 | 0.0 | 1.0 | 0.00 | 0.04 | 0.00 | 72 | 1018.2 |
| 20260507044059 | 50 | 0 | 0.0 | 1.0 | 0.00 | 0.04 | 0.00 | 71 | 1018.1 |
| 20260507043558 | 50 | 0 | 0.0 | 1.0 | 0.00 | 0.04 | 0.00 | 71 | 1018.1 |
| 20260507043104 | 50 | 0 | 0.0 | 1.0 | 0.00 | 0.04 | 0.00 | 71 | 1018.1 |
| 20260507042559 | 49 | 0 | 0.0 | 1.0 | 0.00 | 0.04 | 0.00 | 73 | 1018.2 |
| 20260507042058 | 49 | 0 | 0.0 | 1.0 | 0.00 | 0.04 | 0.00 | 73 | 1018.2 |
| 20260507041602 | 49 | 0 | 0.0 | 1.0 | 0.00 | 0.04 | 0.00 | 73 | 1018.2 |
| 20260507041058 | 49 | 270 | 0.0 | 1.0 | 0.00 | 0.04 | 0.00 | 73 | 1018.1 |
| 20260507040559 | 48 | 0 | 0.0 | 1.0 | 0.00 | 0.04 | 0.00 | 77 | 1018.3 |
| 20260507040107 | 48 | 0 | 0.0 | 0.0 | 0.00 | 0.04 | 0.00 | 79 | 1018.3 |
| 20260507035558 | 48 | 0 | 0.0 | 0.0 | 0.00 | 0.06 | 0.00 | 79 | 1018.3 |
| 20260507035058 | 48 | 0 | 0.0 | 0.0 | 0.00 | 0.06 | 0.00 | 80 | 1018.4 |
| 20260507034601 | 49 | 0 | 0.0 | 0.0 | 0.00 | 0.06 | 0.00 | 80 | 1018.2 |
| 20260507034058 | 49 | 0 | 0.0 | 0.0 | 0.00 | 0.06 | 0.00 | 80 | 1018.0 |
| 20260507033557 | 48 | 0 | 0.0 | 0.0 | 0.00 | 0.06 | 0.00 | 80 | 1018.0 |
| 20260507033058 | 48 | 0 | 0.0 | 0.0 | 0.00 | 0.06 | 0.00 | 81 | 1018.1 |
| 20260507032559 | 48 | 0 | 0.0 | 0.0 | 0.00 | 0.06 | 0.00 | 81 | 1018.3 |
| 20260507032058 | 48 | 0 | 0.0 | 0.0 | 0.00 | 0.06 | 0.00 | 82 | 1018.2 |
| 20260507031559 | 48 | 0 | 0.0 | 0.0 | 0.00 | 0.06 | 0.00 | 81 | 1018.3 |
| 20260507031058 | 48 | 0 | 0.0 | 0.0 | 0.00 | 0.06 | 0.00 | 78 | 1018.2 |
| 20260507030557 | 48 | 0 | 0.0 | 0.0 | 0.00 | 0.06 | 0.00 | 77 | 1018.2 |
| 20260507030100 | 48 | 0 | 0.0 | 0.0 | 0.00 | 0.06 | 0.00 | 77 | 1018.2 |
| 20260507025558 | 48 | 0 | 0.0 | 0.0 | 0.00 | 0.06 | 0.00 | 76 | 1018.3 |
| 20260507025058 | 49 | 0 | 0.0 | 0.0 | 0.00 | 0.06 | 0.00 | 74 | 1018.2 |
| 20260507024609 | 49 | 0 | 0.0 | 0.0 | 0.00 | 0.06 | 0.00 | 74 | 1018.0 |
| 20260507024058 | 49 | 0 | 0.0 | 0.0 | 0.00 | 0.06 | 0.00 | 74 | 1017.8 |
| 20260507023557 | 49 | 0 | 0.0 | 0.0 | 0.00 | 0.06 | 0.00 | 74 | 1017.8 |
| 20260507023056 | 49 | 0 | 0.0 | 0.0 | 0.00 | 0.06 | 0.00 | 74 | 1017.9 |
| 20260507022559 | 49 | 0 | 0.0 | 0.0 | 0.00 | 0.06 | 0.00 | 75 | 1017.9 |
| 20260507022059 | 49 | 0 | 0.0 | 0.0 | 0.00 | 0.06 | 0.00 | 72 | 1017.7 |
| 20260507021600 | 50 | 0 | 0.0 | 0.0 | 0.00 | 0.06 | 0.00 | 71 | 1017.7 |
| 20260507021058 | 50 | 0 | 0.0 | 0.0 | 0.00 | 0.06 | 0.00 | 70 | 1017.8 |
| 20260507020558 | 50 | 0 | 0.0 | 0.0 | 0.00 | 0.06 | 0.00 | 69 | 1017.7 |
| 20260507020059 | 50 | 0 | 0.0 | 0.0 | 0.00 | 0.06 | 0.00 | 66 | 1017.6 |
| 20260507015558 | 50 | 0 | 0.0 | 0.0 | 0.00 | 0.06 | 0.00 | 57 | 1017.6 |
| 20260507015057 | 51 | 0 | 0.0 | 0.0 | 0.00 | 0.06 | 0.00 | 51 | 1017.4 |
| 20260507014601 | 51 | 0 | 0.0 | 0.0 | 0.00 | 0.06 | 0.00 | 49 | 1017.4 |
| 20260507014058 | 52 | 0 | 0.0 | 0.0 | 0.00 | 0.06 | 0.00 | 48 | 1017.3 |
| 20260507013600 | 53 | 0 | 0.0 | 0.0 | 0.00 | 0.06 | 0.00 | 47 | 1017.3 |
| 20260507013104 | 53 | 0 | 0.0 | 0.0 | 0.00 | 0.06 | 0.00 | 46 | 1017.2 |
| 20260507012558 | 53 | 0 | 0.0 | 0.0 | 0.00 | 0.06 | 0.00 | 45 | 1017.2 |
| 20260507012058 | 54 | 0 | 0.0 | 0.0 | 0.00 | 0.06 | 0.00 | 44 | 1017.1 |
| 20260507011605 | 54 | 0 | 0.0 | 0.0 | 0.00 | 0.06 | 0.00 | 43 | 1017.2 |
| 20260507011058 | 55 | 0 | 0.0 | 0.0 | 0.00 | 0.06 | 0.00 | 42 | 1017.3 |
| 20260507010559 | 56 | 0 | 0.0 | 0.0 | 0.00 | 0.06 | 0.00 | 42 | 1017.1 |
| 20260507010115 | 56 | 0 | 0.0 | 0.0 | 0.00 | 0.06 | 0.00 | 41 | 1017.2 |
| 20260507005559 | 57 | 0 | 0.0 | 1.0 | 0.00 | 0.06 | 0.00 | 40 | 1017.3 |
| 20260507005100 | 58 | 0 | 0.0 | 1.0 | 0.00 | 0.06 | 0.00 | 40 | 1017.2 |
| 20260507004609 | 58 | 0 | 0.0 | 1.0 | 0.00 | 0.06 | 0.00 | 40 | 1017.2 |
| 20260507004058 | 58 | 0 | 0.0 | 1.0 | 0.00 | 0.06 | 0.00 | 39 | 1017.2 |
| 20260507003559 | 59 | 0 | 0.0 | 1.0 | 0.00 | 0.06 | 0.00 | 38 | 1017.2 |
| 20260507003057 | 59 | 0 | 0.0 | 2.0 | 0.00 | 0.06 | 0.00 | 37 | 1017.2 |
| 20260507002558 | 60 | 0 | 0.0 | 3.0 | 0.00 | 0.06 | 0.00 | 36 | 1017.2 |
| 20260507002059 | 61 | 340 | 0.0 | 3.0 | 0.00 | 0.06 | 0.00 | 34 | 1017.1 |
| 20260507001601 | 62 | 0 | 1.0 | 3.0 | 0.00 | 0.06 | 0.00 | 34 | 1017.1 |
| 20260507001058 | 63 | 0 | 0.0 | 4.0 | 0.00 | 0.06 | 0.00 | 33 | 1017.1 |
| 20260507000602 | 63 | 0 | 0.0 | 4.0 | 0.00 | 0.06 | 0.00 | 33 | 1017.2 |
| 20260507000105 | 63 | 323 | 1.0 | 3.0 | 0.00 | 0.06 | 0.00 | 33 | 1017.2 |
| 20260506235559 | 63 | 248 | 1.0 | 5.0 | 0.00 | 0.06 | 0.00 | 32 | 1017.1 |
| 20260506235100 | 63 | 274 | 1.0 | 5.0 | 0.00 | 0.06 | 0.00 | 31 | 1017.2 |
| 20260506234614 | 64 | 256 | 2.0 | 4.0 | 0.00 | 0.06 | 0.00 | 32 | 1017.2 |
| 20260506234102 | 64 | 204 | 1.0 | 4.0 | 0.00 | 0.06 | 0.00 | 31 | 1017.2 |
| 20260506233600 | 65 | 13 | 1.0 | 3.0 | 0.00 | 0.06 | 0.00 | 33 | 1017.3 |
| 20260506233104 | 65 | 304 | 0.0 | 1.0 | 0.00 | 0.06 | 0.00 | 31 | 1017.2 |
| 20260506232558 | 64 | 0 | 0.0 | 3.0 | 0.00 | 0.06 | 0.00 | 31 | 1017.2 |
| 20260506232058 | 64 | 0 | 0.0 | 4.0 | 0.00 | 0.06 | 0.00 | 33 | 1017.3 |
| 20260506231601 | 64 | 65 | 0.0 | 4.0 | 0.00 | 0.06 | 0.00 | 32 | 1017.2 |
| 20260506231100 | 64 | 19 | 1.0 | 4.0 | 0.00 | 0.06 | 0.00 | 34 | 1017.3 |
| 20260506230558 | 64 | 305 | 1.0 | 4.0 | 0.00 | 0.06 | 0.00 | 32 | 1017.4 |
| 20260506230059 | 64 | 264 | 1.0 | 4.0 | 0.00 | 0.06 | 0.00 | 32 | 1017.4 |
| 20260506225559 | 64 | 279 | 0.0 | 3.0 | 0.00 | 0.06 | 0.00 | 32 | 1017.3 |
| 20260506225059 | 64 | 101 | 1.0 | 3.0 | 0.00 | 0.06 | 0.00 | 30 | 1017.3 |
| 20260506224559 | 64 | 82 | 0.0 | 3.0 | 0.00 | 0.06 | 0.00 | 36 | 1017.3 |
| 20260506224059 | 62 | 0 | 0.0 | 8.0 | 0.00 | 0.06 | 0.00 | 34 | 1017.3 |
| 20260506223557 | 62 | 349 | 3.0 | 8.0 | 0.00 | 0.06 | 0.00 | 34 | 1017.3 |
| 20260506223100 | 62 | 355 | 1.0 | 4.0 | 0.00 | 0.06 | 0.00 | 33 | 1017.3 |
| 20260506222600 | 62 | 36 | 2.0 | 5.0 | 0.00 | 0.06 | 0.00 | 37 | 1017.3 |
| 20260506222058 | 62 | 49 | 1.0 | 5.0 | 0.00 | 0.06 | 0.00 | 34 | 1017.3 |
| 20260506221605 | 62 | 298 | 2.0 | 5.0 | 0.00 | 0.06 | 0.00 | 33 | 1017.4 |
| 20260506221058 | 62 | 69 | 0.0 | 3.0 | 0.00 | 0.06 | 0.00 | 36 | 1017.5 |
| 20260506220601 | 61 | 310 | 0.0 | 3.0 | 0.00 | 0.06 | 0.00 | 36 | 1017.6 |
| 20260506220057 | 61 | 293 | 1.0 | 3.0 | 0.00 | 0.06 | 0.00 | 33 | 1017.5 |
| 20260506215601 | 61 | 0 | 0.0 | 3.0 | 0.00 | 0.06 | 0.00 | 35 | 1017.6 |
| 20260506215101 | 61 | 34 | 2.0 | 3.0 | 0.00 | 0.06 | 0.00 | 36 | 1017.8 |
| 20260506214607 | 61 | 338 | 0.0 | 5.0 | 0.00 | 0.06 | 0.00 | 36 | 1017.7 |
| 20260506214059 | 61 | 71 | 1.0 | 5.0 | 0.00 | 0.06 | 0.00 | 36 | 1017.7 |
| 20260506213558 | 61 | 72 | 1.0 | 5.0 | 0.00 | 0.06 | 0.00 | 33 | 1018.0 |
| 20260506213058 | 61 | 0 | 1.0 | 5.0 | 0.00 | 0.06 | 0.00 | 38 | 1018.1 |
| 20260506212559 | 61 | 218 | 2.0 | 8.0 | 0.00 | 0.06 | 0.00 | 32 | 1018.1 |
| 20260506212059 | 61 | 252 | 2.0 | 10.0 | 0.00 | 0.06 | 0.00 | 37 | 1018.1 |
| 20260506211600 | 61 | 323 | 2.0 | 10.0 | 0.00 | 0.06 | 0.00 | 37 | 1018.1 |
| 20260506211058 | 61 | 303 | 1.0 | 10.0 | 0.00 | 0.06 | 0.00 | 35 | 1018.2 |
| 20260506210559 | 61 | 320 | 2.0 | 5.0 | 0.00 | 0.06 | 0.00 | 32 | 1018.4 |
| 20260506210057 | 61 | 295 | 1.0 | 5.0 | 0.00 | 0.06 | 0.00 | 34 | 1018.7 |
| 20260506205558 | 61 | 315 | 2.0 | 7.0 | 0.00 | 0.06 | 0.00 | 34 | 1018.6 |
| 20260506205058 | 61 | 0 | 1.0 | 7.0 | 0.00 | 0.06 | 0.00 | 34 | 1018.5 |
| 20260506204616 | 62 | 67 | 2.0 | 4.0 | 0.00 | 0.06 | 0.00 | 34 | 1018.8 |
| 20260506204058 | 62 | 263 | 2.0 | 6.0 | 0.00 | 0.06 | 0.00 | 32 | 1018.7 |
| 20260506203559 | 62 | 82 | 1.0 | 6.0 | 0.00 | 0.06 | 0.00 | 33 | 1018.7 |
| 20260506203057 | 62 | 324 | 3.0 | 6.0 | 0.00 | 0.06 | 0.00 | 35 | 1019.0 |
| 20260506202559 | 62 | 316 | 1.0 | 6.0 | 0.00 | 0.06 | 0.00 | 34 | 1018.9 |
| 20260506202106 | 62 | 13 | 2.0 | 6.0 | 0.00 | 0.06 | 0.00 | 37 | 1018.9 |
| 20260506201601 | 62 | 323 | 2.0 | 5.0 | 0.00 | 0.06 | 0.00 | 36 | 1019.1 |
| 20260506201100 | 62 | 268 | 1.0 | 5.0 | 0.00 | 0.06 | 0.00 | 35 | 1019.0 |
| 20260506200558 | 62 | 298 | 2.0 | 5.0 | 0.00 | 0.06 | 0.00 | 37 | 1019.2 |
| 20260506200058 | 61 | 0 | 1.0 | 4.0 | 0.00 | 0.06 | 0.00 | 35 | 1019.1 |
| 20260506195600 | 61 | 124 | 1.0 | 5.0 | 0.00 | 0.06 | 0.00 | 36 | 1019.3 |
| 20260506195058 | 61 | 297 | 2.0 | 5.0 | 0.00 | 0.06 | 0.00 | 35 | 1019.2 |
| 20260506194559 | 62 | 253 | 2.0 | 4.0 | 0.00 | 0.06 | 0.00 | 39 | 1019.4 |
| 20260506194058 | 61 | 281 | 1.0 | 4.0 | 0.00 | 0.06 | 0.00 | 39 | 1019.4 |
| 20260506193558 | 61 | 292 | 1.0 | 4.0 | 0.00 | 0.06 | 0.00 | 37 | 1019.2 |
| 20260506193056 | 61 | 221 | 2.0 | 5.0 | 0.00 | 0.06 | 0.00 | 38 | 1019.3 |
| 20260506192559 | 61 | 0 | 2.0 | 6.0 | 0.00 | 0.06 | 0.00 | 37 | 1019.3 |
| 20260506192059 | 61 | 248 | 2.0 | 6.0 | 0.00 | 0.06 | 0.00 | 37 | 1019.2 |
| 20260506191557 | 60 | 20 | 1.0 | 6.0 | 0.00 | 0.06 | 0.00 | 42 | 1019.3 |
| 20260506191059 | 60 | 84 | 2.0 | 6.0 | 0.00 | 0.06 | 0.00 | 34 | 1019.1 |
| 20260506190558 | 60 | 290 | 1.0 | 4.0 | 0.00 | 0.06 | 0.00 | 36 | 1019.2 |
| 20260506190058 | 60 | 124 | 2.0 | 5.0 | 0.00 | 0.06 | 0.00 | 36 | 1019.2 |
| 20260506185610 | 60 | 58 | 2.0 | 7.0 | 0.00 | 0.06 | 0.00 | 35 | 1019.3 |
| 20260506185058 | 60 | 89 | 1.0 | 7.0 | 0.00 | 0.06 | 0.00 | 37 | 1019.3 |
| 20260506184600 | 61 | 59 | 1.0 | 5.0 | 0.00 | 0.06 | 0.00 | 39 | 1019.4 |
| 20260506184057 | 60 | 22 | 1.0 | 5.0 | 0.00 | 0.06 | 0.00 | 38 | 1019.5 |
| 20260506183558 | 60 | 131 | 1.0 | 5.0 | 0.00 | 0.06 | 0.00 | 35 | 1019.4 |
| 20260506183107 | 60 | 257 | 1.0 | 6.0 | 0.00 | 0.06 | 0.00 | 36 | 1019.6 |
| 20260506182558 | 60 | 82 | 1.0 | 6.0 | 0.00 | 0.06 | 0.00 | 39 | 1019.6 |
| 20260506182101 | 59 | 343 | 0.0 | 6.0 | 0.00 | 0.06 | 0.00 | 39 | 1019.7 |
| 20260506181602 | 59 | 26 | 3.0 | 6.0 | 0.00 | 0.06 | 0.00 | 37 | 1019.8 |
| 20260506181059 | 59 | 320 | 3.0 | 5.0 | 0.00 | 0.06 | 0.00 | 36 | 1019.7 |
| 20260506180558 | 59 | 342 | 1.0 | 6.0 | 0.00 | 0.06 | 0.00 | 40 | 1019.7 |
| 20260506180101 | 59 | 324 | 1.0 | 6.0 | 0.00 | 0.06 | 0.00 | 40 | 1019.9 |
| 20260506175559 | 59 | 321 | 1.0 | 8.0 | 0.00 | 0.06 | 0.00 | 38 | 1019.8 |
| 20260506175056 | 59 | 293 | 3.0 | 8.0 | 0.00 | 0.06 | 0.00 | 37 | 1019.9 |
| 20260506174609 | 59 | 18 | 1.0 | 4.0 | 0.00 | 0.06 | 0.00 | 37 | 1019.8 |
| 20260506174207 | 59 | 320 | 1.0 | 3.0 | 0.00 | 0.06 | 0.00 | 39 | 1020.0 |
| 20260506173601 | 59 | 160 | 2.0 | 5.0 | 0.00 | 0.06 | 0.00 | 37 | 1020.0 |
| 20260506173128 | 58 | 328 | 2.0 | 6.0 | 0.00 | 0.06 | 0.00 | 39 | 1020.2 |
| 20260506172556 | 58 | 276 | 2.0 | 6.0 | 0.00 | 0.06 | 0.00 | 39 | 1020.0 |
| 20260506172057 | 59 | 328 | 2.0 | 6.0 | 0.00 | 0.06 | 0.00 | 37 | 1020.1 |
| 20260506171556 | 58 | 68 | 2.0 | 6.0 | 0.00 | 0.06 | 0.00 | 39 | 1020.0 |
| 20260506171057 | 58 | 250 | 1.0 | 4.0 | 0.00 | 0.06 | 0.00 | 39 | 1020.1 |
| 20260506170559 | 58 | 0 | 1.0 | 4.0 | 0.00 | 0.06 | 0.00 | 39 | 1020.1 |
| 20260506170057 | 58 | 26 | 0.0 | 6.0 | 0.00 | 0.06 | 0.00 | 40 | 1020.0 |
| 20260506165557 | 58 | 287 | 1.0 | 6.0 | 0.00 | 0.06 | 0.00 | 39 | 1020.0 |
| 20260506165057 | 57 | 0 | 1.0 | 6.0 | 0.00 | 0.06 | 0.00 | 42 | 1020.2 |
| 20260506164557 | 57 | 50 | 1.0 | 5.0 | 0.00 | 0.06 | 0.00 | 43 | 1020.1 |
| 20260506164056 | 57 | 82 | 1.0 | 4.0 | 0.00 | 0.06 | 0.00 | 44 | 1020.2 |
| 20260506163557 | 56 | 274 | 0.0 | 5.0 | 0.00 | 0.06 | 0.00 | 46 | 1020.2 |
| 20260506163100 | 56 | 65 | 1.0 | 5.0 | 0.00 | 0.06 | 0.00 | 44 | 1020.2 |
| 20260506162559 | 56 | 229 | 1.0 | 3.0 | 0.00 | 0.06 | 0.00 | 45 | 1020.2 |
| 20260506162059 | 55 | 301 | 0.0 | 5.0 | 0.00 | 0.06 | 0.00 | 48 | 1020.3 |
| 20260506161610 | 55 | 68 | 1.0 | 8.0 | 0.00 | 0.06 | 0.00 | 47 | 1020.2 |
| 20260506161056 | 54 | 42 | 1.0 | 8.0 | 0.00 | 0.06 | 0.00 | 48 | 1020.3 |
| 20260506160557 | 55 | 307 | 1.0 | 5.0 | 0.00 | 0.06 | 0.00 | 46 | 1020.0 |
| 20260506160109 | 55 | 333 | 1.0 | 5.0 | 0.00 | 0.06 | 0.00 | 46 | 1019.9 |